DW6648 Weather Reports


Display with metric or nautical units.
time (UTC)temp
F
wind
direction
speed
MPH
gust
MPH
rain 1hr
in
rain 24hr
in
rain mn
in
humidity
%
barometer
mb
20260510203317 51 41 0.0 0.0 0.00 0.00 0.00 64 1013.1
20260510202317 52 26 0.0 0.0 0.00 0.00 0.00 64 1013.1
20260510201817 52 35 0.0 0.0 0.00 0.00 0.00 64 1013.1
20260510200316 52 25 0.0 0.0 0.00 0.00 0.00 63 1013.0
20260510195316 53 32 0.0 0.0 0.00 0.00 0.00 63 1012.9
20260510194817 53 39 0.0 0.0 0.00 0.00 0.00 63 1012.8
20260510193316 54 34 0.0 0.0 0.00 0.00 0.00 62 1012.7
20260510191316 55 34 0.0 0.0 0.00 0.00 0.00 61 1012.4
20260510185816 56 41 0.0 0.0 0.00 0.00 0.00 61 1012.3
20260510184815 56 46 0.0 0.0 0.00 0.00 0.00 62 1012.4
20260510181815 57 29 0.0 0.0 0.00 0.00 0.00 59 1012.6
20260510175315 57 34 0.0 0.0 0.00 0.00 0.00 62 1012.6
20260510174815 57 57 0.0 0.0 0.00 0.00 0.00 62 1012.8
20260510174315 57 43 0.0 0.0 0.00 0.00 0.00 62 1012.8
20260510173814 57 67 0.0 0.0 0.00 0.00 0.00 61 1012.8
20260510172814 57 34 0.0 0.0 0.00 0.00 0.00 61 1012.7
20260510172314 58 37 0.0 0.0 0.00 0.00 0.00 61 1012.8
20260510170814 59 34 0.0 0.0 0.00 0.00 0.00 60 1012.8
20260510170313 59 38 0.0 0.0 0.00 0.00 0.00 60 1012.9
20260510165812 59 36 0.0 0.0 0.00 0.00 0.00 61 1012.9
20260510164813 59 39 0.0 0.0 0.00 0.00 0.00 60 1012.9
20260510163812 59 72 0.0 0.0 0.00 0.00 0.00 60 1013.0
20260510163313 60 79 0.0 0.0 0.00 0.00 0.00 60 1013.0
20260510162814 59 40 0.0 0.0 0.00 0.00 0.00 62 1013.1
20260510161812 59 69 0.0 0.0 0.00 0.00 0.00 61 1013.0
20260510160814 59 48 0.0 0.0 0.00 0.00 0.00 60 1013.1
20260510160312 60 52 0.0 0.0 0.00 0.00 0.00 60 1013.3
20260510155311 61 43 0.0 0.0 0.00 0.00 0.00 59 1013.3
20260510154812 61 47 0.0 0.0 0.00 0.00 0.00 59 1013.3
20260510153811 61 53 0.0 0.0 0.00 0.00 0.00 59 1013.4
20260510153311 62 44 0.0 0.0 0.00 0.00 0.00 60 1013.4
20260510152812 61 62 0.0 0.0 0.00 0.00 0.00 59 1013.5
20260510152311 61 44 0.0 0.0 0.00 0.00 0.00 60 1013.5
20260510151811 61 48 0.0 0.0 0.00 0.00 0.00 59 1013.5
20260510145310 60 43 0.0 0.0 0.00 0.00 0.00 60 1013.6
20260510144811 60 54 0.0 0.0 0.00 0.00 0.00 61 1013.5
20260510143810 60 60 0.0 0.0 0.00 0.00 0.00 61 1013.6
20260510143310 60 51 0.0 0.0 0.00 0.00 0.00 61 1013.7
20260510142310 61 59 0.0 0.0 0.00 0.00 0.00 59 1014.4
20260510141810 61 30 0.0 0.0 0.00 0.00 0.00 60 1013.8
20260510141310 60 39 0.0 0.0 0.00 0.00 0.00 61 1013.9
20260510140309 60 62 0.0 0.0 0.00 0.00 0.00 60 1014.1
20260510133310 61 57 0.0 0.0 0.00 0.00 0.00 59 1014.1
20260510132809 61 37 0.0 0.0 0.00 0.00 0.00 60 1014.1
20260510132309 61 44 0.0 0.0 0.00 0.00 0.00 59 1014.2
20260510131809 61 44 0.0 0.0 0.00 0.00 0.00 59 1014.2
20260510125809 61 59 0.0 0.0 0.00 0.00 0.00 59 1014.3
20260510125308 62 42 0.0 0.0 0.00 0.00 0.00 58 1014.3
20260510124309 62 52 0.0 0.0 0.00 0.00 0.00 58 1014.6
20260510123810 62 93 0.0 0.0 0.00 0.00 0.00 59 1014.3
20260510123308 62 54 0.0 0.0 0.00 0.00 0.00 59 1014.3
20260510122808 62 65 0.0 0.0 0.00 0.00 0.00 58 1014.5
20260510121809 61 40 0.0 0.0 0.00 0.00 0.00 59 1014.4
20260510120307 61 45 0.0 0.0 0.00 0.00 0.00 58 1014.6
20260510114808 60 32 0.0 0.0 0.00 0.00 0.00 60 1014.6
20260510114307 60 69 0.0 0.0 0.00 0.00 0.00 60 1014.8
20260510113308 60 55 0.0 0.0 0.00 0.00 0.00 59 1014.9
20260510112307 60 59 0.0 0.0 0.00 0.00 0.00 59 1015.0
20260510110806 59 37 0.0 0.0 0.00 0.00 0.00 60 1015.1
20260510110306 59 47 0.0 0.0 0.00 0.00 0.00 60 1015.2
20260510105307 59 56 0.0 0.0 0.00 0.00 0.00 60 1015.3
20260510104806 60 41 0.0 0.0 0.00 0.00 0.00 59 1015.3
20260510104306 60 82 0.0 0.0 0.00 0.00 0.00 61 1015.2
20260510103807 59 55 0.0 0.0 0.00 0.00 0.00 62 1015.3
20260510103306 58 49 0.0 0.0 0.00 0.00 0.00 62 1015.3
20260510102306 59 52 0.0 0.0 0.00 0.00 0.00 60 1015.4
20260510101305 59 46 0.0 0.0 0.00 0.00 0.00 61 1015.4
20260510095804 59 51 0.0 0.0 0.00 0.00 0.00 64 1015.6
20260510094805 58 67 0.0 0.0 0.00 0.00 0.00 64 1015.7
20260510094305 57 80 0.0 0.0 0.00 0.00 0.00 65 1015.5
20260510093804 57 57 0.0 0.0 0.00 0.00 0.00 66 1015.6
20260510093305 56 44 0.0 0.0 0.00 0.00 0.00 67 1015.8
20260510091805 55 45 0.0 0.0 0.00 0.00 0.00 70 1015.8
20260510091305 54 69 0.0 0.0 0.00 0.00 0.00 70 1015.8
20260510085336 53 49 0.0 0.0 0.00 0.00 0.00 73 1015.9
20260510083336 53 40 0.0 0.0 0.00 0.00 0.00 74 1016.0
20260510082835 53 42 0.0 0.0 0.00 0.00 0.00 74 1016.0
20260510081835 52 38 0.0 0.0 0.00 0.00 0.00 76 1016.0
20260510081335 52 43 0.0 0.0 0.00 0.00 0.00 76 1016.0
20260510080835 52 44 0.0 0.0 0.00 0.00 0.00 76 1016.0
20260510075335 51 35 0.0 0.0 0.00 0.00 0.00 76 1016.0
20260510074335 51 61 0.0 0.0 0.00 0.00 0.00 76 1015.9
20260510072335 51 68 0.0 0.0 0.00 0.00 0.00 77 1015.8
20260510071334 51 51 0.0 0.0 0.00 0.00 0.00 77 1015.7
20260510070834 51 46 0.0 0.0 0.00 0.00 0.00 77 1015.7
20260510070334 51 63 0.0 0.0 0.00 0.00 0.00 78 1015.6
20260510064834 51 48 0.0 0.0 0.00 0.00 0.00 79 1015.6
20260510064333 50 43 0.0 0.0 0.00 0.00 0.00 79 1015.5
20260510063334 50 56 0.0 0.0 0.00 0.00 0.00 80 1015.5
20260510062333 50 44 0.0 0.0 0.00 0.00 0.00 81 1015.6
20260510060333 49 50 0.0 0.0 0.00 0.00 0.00 81 1015.5
20260510055332 48 36 0.0 0.0 0.00 0.00 0.00 81 1015.5
20260510053832 48 64 0.0 0.0 0.00 0.00 0.00 80 1015.5
20260510052331 48 52 0.0 0.0 0.00 0.00 0.00 79 1015.5
20260510051832 49 60 0.0 0.0 0.00 0.00 0.00 79 1015.6
20260510051331 49 67 0.0 0.0 0.00 0.00 0.00 79 1015.5
20260510050832 49 67 0.0 0.0 0.00 0.00 0.00 79 1015.7
20260510050331 49 43 0.0 0.0 0.00 0.00 0.00 79 1015.5
20260510045330 49 49 0.0 0.0 0.00 0.00 0.00 79 1015.6
20260510044331 49 38 0.0 0.0 0.00 0.00 0.00 78 1015.5
20260510043831 49 43 0.0 0.0 0.00 0.00 0.00 78 1015.5
20260510042831 50 41 0.0 0.0 0.00 0.00 0.00 77 1015.5
20260510042330 50 37 0.0 0.0 0.00 0.00 0.00 77 1015.6
20260510041330 50 54 0.0 0.0 0.00 0.00 0.00 77 1015.6
20260510040330 51 39 0.0 0.0 0.00 0.00 0.00 75 1015.6
20260510035832 51 43 0.0 0.0 0.00 0.00 0.00 75 1015.7
20260510034830 51 49 0.0 0.0 0.00 0.00 0.00 75 1015.7
20260510034330 51 60 0.0 0.0 0.00 0.00 0.00 75 1015.8
20260510033330 51 51 0.0 0.0 0.00 0.00 0.00 74 1015.9
20260510030329 52 48 0.0 0.0 0.00 0.00 0.00 70 1016.1
20260510023829 53 44 0.0 0.0 0.00 0.00 0.00 66 1016.1
20260510023329 53 51 0.0 0.0 0.00 0.00 0.00 65 1016.0
20260510022828 54 45 0.0 0.0 0.00 0.00 0.00 65 1015.8
20260510022328 54 79 0.0 0.0 0.00 0.00 0.00 65 1016.0
20260510021328 54 57 0.0 0.0 0.00 0.00 0.00 64 1015.8
20260510015828 54 65 0.0 0.0 0.00 0.00 0.00 63 1015.8
20260510015328 54 40 0.0 0.0 0.00 0.00 0.00 63 1015.8
20260510014828 54 72 0.0 0.0 0.00 0.00 0.00 63 1015.8
20260510013328 55 55 0.0 0.0 0.00 0.00 0.00 61 1015.8
20260510012827 55 50 0.0 0.0 0.00 0.00 0.00 61 1015.8
20260510012327 55 40 0.0 0.0 0.00 0.00 0.00 60 1015.8
20260510011827 55 53 0.0 0.0 0.00 0.00 0.00 60 1016.0
20260510010828 55 50 0.0 0.0 0.00 0.00 0.00 59 1016.0
20260510005826 55 102 0.0 0.0 0.00 0.00 0.00 58 1016.0
20260510004826 56 31 0.0 0.0 0.00 0.00 0.00 58 1015.9
20260510003326 56 46 0.0 0.0 0.00 0.00 0.00 56 1016.0
20260510002825 56 44 0.0 0.0 0.00 0.00 0.00 56 1015.9
20260510002325 56 43 0.0 0.0 0.00 0.00 0.00 56 1016.0
20260510001825 57 25 0.0 0.0 0.00 0.00 0.00 55 1015.9
20260509234325 58 51 0.0 0.0 0.00 0.00 0.00 53 1016.0
20260509233825 58 31 0.0 0.0 0.00 0.00 0.00 53 1015.9
20260509233325 58 67 0.0 0.0 0.00 0.00 0.00 53 1015.9
20260509232824 58 47 0.0 0.0 0.00 0.00 0.00 53 1016.0
20260509231824 58 68 0.0 0.0 0.00 0.00 0.00 54 1015.8
20260509231324 58 102 0.0 0.0 0.00 0.00 0.00 53 1015.7
20260509230833 58 66 0.0 0.0 0.00 0.00 0.00 53 1015.7
20260509225825 58 73 0.0 0.0 0.00 0.00 0.00 54 1015.7
20260509225324 59 59 0.0 0.0 0.00 0.00 0.00 54 1015.7
20260509224825 59 55 0.0 0.0 0.00 0.00 0.00 54 1015.6
20260509224323 59 60 0.0 0.0 0.00 0.00 0.00 54 1015.6
20260509223324 59 54 0.0 0.0 0.00 0.00 0.00 54 1015.6
20260509222323 60 44 0.0 0.0 0.00 0.00 0.00 54 1015.5
20260509220823 60 45 0.0 0.0 0.00 0.00 0.00 56 1015.4
20260509220322 60 57 0.0 0.0 0.00 0.00 0.00 58 1015.4
20260509215322 60 51 0.0 0.0 0.00 0.00 0.00 57 1015.5
20260509213322 61 52 0.0 0.0 0.00 0.00 0.00 62 1015.4
20260509205821 61 49 0.0 0.0 0.00 0.00 0.00 62 1015.3
20260509204821 62 88 0.0 0.0 0.00 0.00 0.00 62 1015.0
20260509204321 62 63 0.0 0.0 0.00 0.00 0.00 63 1015.0
20260509203820 62 48 0.0 0.0 0.00 0.00 0.00 63 1014.9